SCP
0 0 0 0 0 0 0 0 0 0 0 0 0 0 0 0 0 0 0 0 0 0 0 0 0 0 0 0 0 0 0 0
0 0 0 0 0 0 0 0 0 0 0 0 0 0 0 0 0 0 0 0 0 0 0 0 0 0 0 0 0 0 0 0
0 0 0 0 0 0 0 0 0 0 0 0 0 0 0 0 0 0 0 0 0 0 0 0 0 0 0 0 0 0 0 0
0 0 0 0 0 0 0 0 0 0 0 0 0 0 0 0 0 0 0 0 0 0 0 0 0 0 0 0 0 0 0 0
0 0 0 0 0 0 0 0 0 0 0 0 0 0 0 0 0 0 0 0 0 0 0 0 0 0 0 0 0 0 0 0
-0 0 0 0 0 0 0 0 0 0 0 0 0 0 0 0 0 0 0 0 0 0 0 0 0 0 0 0 0 0 0 0
0 0 0 0 0 0 0 0 0 0 0 0 0 0 0 0 0 0 0 0 0 0 0 0 0 0 0 0 0 0 0 0
0 0 0 0 0 0 0 0 0 0 0 0 0 0 0 0 0 0 0 0 0 0 0 0 0 0 0 0 0 0 0 0
0 0 0 0 0 0 0 0 0 0 0 0 0 0 0 0 0 0 0 0 0 0 0 0 0 0 0 0 0 0 0 0
0 0 0 0 0 0 0 0 0 0 0 0 0 0 0 0 0 0 0 0 0 0 0 0 0 0 0 0 0 0 0 0
0 0 0 0 0 0 0 0 0 0 0 0 0 0 0 0 0 0 0 0 0 0 0 0 0 0 0 0 0 0 0 0
0 0 0 0 0 0 0 0 0 0 0 0 0 0 0 0 0 0 0 0 0 0 0 0 0 0 0 0 0 0 0 0
0 0 0 0 0 0 0 0 0 0 0 0 0 0 0 0 0 0 0 0 -0 -0 0 0 0 0 0 0 0 0 0 0
0 0 0 0 0 0 0 0 0 0 0 0 0 0 0 0 0 0 -0 -0 -0 0 0 0 0 0 0 -0 0 0 0 0
0 0 0 0 0 0 0 0 0 0 0 0 0 0 0 0 0 0 0 0 0 0 0 -0 -0 -0 0 0 0 0 0 0
0 0 0 0 0 0 0 0 0 0 0 0 0 0 0 0 0 0 0 -0 0 0 -0 -0 -0 -0 -0 -0 -0 0 0 0
0 0 0 0 0 0 0 0 0 0 0 0 0 0 -0 -0 0 0 -0 -0 -0 -0 0 -0 -0 -0 -0 -0 -0 0 0 0
0 0 0 0 0 0 0 0 0 0 -0 -0 -0 0 -0 0 0 -0 0 -0 0 0 0 0 0 0 0 0 0 0 0 0
0 0 0 0 0 0 0 0 -0 0 0 0 -0 0 0 0 0 0 0 0 0 0 0 0 0 0 0 0 0 0 0 0
0 0 0 0 0 0 0 0 0 0 0 0 0 0 0 0 0 0 0 0 0 0 0 0 0 0 0 0 0 0 0 0
Wind_Speed_500mb
66 65 68 59 56 45 28 21 11 5 2 4 6 7 7 8 11 13 16 22 29 33 37 42 48 50 48 38 36 33 38 43
68 66 62 57 47 35 23 12 9 7 11 14 17 18 18 18 18 20 23 29 34 37 43 50 49 43 32 29 31 34 39 47
67 65 55 42 41 32 22 13 7 10 14 17 18 19 21 22 23 25 28 32 39 46 50 47 37 25 25 29 35 42 47 52
49 53 48 32 30 25 15 9 11 11 13 15 18 21 25 27 29 30 33 39 44 44 40 30 19 25 28 31 38 51 52 49
56 47 42 32 24 15 9 9 10 13 16 19 23 28 33 36 37 38 40 41 38 31 22 23 22 29 32 38 48 50 37 42
55 42 31 22 12 4 3 5 9 13 17 20 24 28 32 34 34 33 32 31 24 21 24 27 29 30 35 43 51 37 41 51
44 30 19 13 7 4 4 6 10 13 17 22 25 25 23 20 19 20 21 18 18 23 26 32 35 36 40 46 46 38 49 53
35 26 21 13 7 7 6 8 11 15 19 23 24 24 19 10 11 13 12 17 26 27 32 33 36 41 43 46 37 46 48 46
29 23 16 14 9 5 7 10 12 15 20 22 19 16 16 13 12 14 17 21 25 28 33 35 37 36 36 34 32 39 45 50
24 21 21 17 15 16 14 14 17 18 22 23 18 13 11 12 15 18 21 24 25 26 27 29 28 26 30 23 28 39 40 41
25 16 18 19 20 19 15 17 18 19 24 28 23 16 11 12 16 18 18 19 22 27 34 37 32 30 32 26 24 35 31 29
17 13 14 14 15 15 11 10 13 16 17 25 34 28 16 12 16 19 24 30 30 31 35 36 38 38 37 30 28 34 38 29
12 10 10 12 14 13 10 11 12 11 10 16 19 28 32 28 27 27 31 38 40 34 32 33 36 39 37 27 28 32 33 36
15 12 8 9 10 10 11 12 13 12 11 11 11 15 14 18 21 26 28 30 33 36 29 26 25 27 25 15 17 25 30 37
14 10 8 10 12 14 9 8 4 12 13 13 8 12 11 10 16 17 23 23 23 31 31 25 22 22 23 21 20 23 31 35
11 7 10 12 16 12 10 8 6 11 12 11 11 11 14 15 16 14 21 26 28 30 34 31 27 27 23 22 22 26 38 43
13 15 15 16 14 15 10 9 12 12 12 11 10 9 12 13 12 16 21 24 27 33 35 33 35 33 32 32 31 38 46 49
17 19 18 16 14 15 13 15 15 14 13 11 10 9 10 12 14 17 22 26 29 35 42 48 45 42 47 51 51 51 50 52
19 20 19 17 18 15 19 21 18 18 15 13 12 11 12 16 16 20 25 26 29 33 37 41 44 49 52 53 54 54 54 54
19 20 18 18 17 20 26 30 26 21 18 17 17 19 19 20 22 23 25 26 29 33 38 42 45 48 50 50 50 51 51 51
Wind_Direction_500mb
143 143 139 139 135 124 148 144 134 134 205 227 235 247 269 299 309 300 294 305 313 315 317 318 318 319 314 310 310 315 317 316
146 144 145 144 133 129 150 140 168 200 245 256 255 258 260 260 266 271 283 299 307 309 313 314 315 313 315 316 319 317 313 310
148 151 148 138 135 150 163 178 221 269 258 254 256 262 266 266 263 270 283 295 303 307 309 309 309 312 317 313 307 302 302 307
147 152 151 159 157 154 170 227 248 249 260 266 264 262 265 267 271 277 285 294 299 304 307 307 310 307 311 306 307 309 309 313
164 150 140 145 148 164 203 242 265 281 288 282 276 270 267 269 273 280 287 292 297 302 301 305 308 303 309 305 313 318 319 319
155 149 147 142 142 161 259 283 298 311 314 310 299 288 282 278 279 280 283 288 294 300 299 304 309 312 308 307 318 311 311 311
144 141 133 128 110 61 15 341 325 325 326 328 321 311 298 288 278 278 281 293 302 297 300 299 302 311 315 316 316 309 312 319
136 127 113 90 77 26 325 322 332 329 335 336 330 328 327 312 294 286 296 298 300 305 298 298 306 308 318 322 312 312 321 326
121 116 119 96 79 50 5 3 350 355 349 343 338 328 314 288 292 297 298 300 305 308 309 311 309 311 317 322 319 326 324 324
121 127 115 93 58 37 34 29 30 21 10 3 353 333 308 301 305 308 306 305 309 312 323 331 336 333 335 338 321 327 329 330
119 106 81 66 48 41 44 57 50 44 36 32 16 350 311 308 325 344 349 348 344 345 353 351 353 358 5 352 345 357 345 346
104 84 71 59 41 34 41 56 45 39 41 44 41 37 39 43 34 36 29 23 15 9 6 5 5 4 2 356 354 353 359 1
115 103 86 56 26 20 50 46 33 25 51 47 47 53 54 49 43 39 34 30 24 19 15 11 7 6 7 359 1 1 10 10
130 115 82 52 28 65 62 52 47 49 37 39 62 55 57 48 48 46 43 34 29 28 20 14 18 17 12 4 3 26 24 16
125 116 82 46 56 103 69 52 54 29 43 31 28 20 44 30 26 36 34 32 26 26 24 21 17 4 6 16 22 34 32 17
120 106 84 73 111 99 83 66 30 21 33 28 21 37 24 19 36 35 18 11 16 23 24 24 21 19 8 3 7 20 34 36
133 123 102 114 114 96 61 15 355 359 9 18 27 35 41 32 26 19 15 11 15 22 26 33 31 31 27 26 22 28 29 26
128 120 111 108 103 78 35 9 358 0 12 15 4 11 6 13 11 13 17 22 24 25 26 26 25 28 31 32 32 31 29 26
116 119 113 98 86 54 29 24 21 24 24 25 25 21 27 24 21 22 20 22 29 31 31 30 29 31 33 30 30 31 29 25
130 122 113 88 72 45 38 37 33 36 38 41 40 42 40 37 34 33 31 35 35 33 34 34 33 31 31 31 30 28 29 25
Wind_Speed_850mb
66 65 68 59 56 45 28 21 11 5 2 4 6 7 7 8 11 13 16 22 29 33 37 42 48 50 48 38 36 33 38 43
68 66 62 57 47 35 23 12 9 7 11 14 17 18 18 18 18 20 23 29 34 37 43 50 49 43 32 29 31 34 39 47
67 65 55 42 41 32 22 13 7 10 14 17 18 19 21 22 23 25 28 32 39 46 50 47 37 25 25 29 35 42 47 52
49 53 48 32 30 25 15 9 11 11 13 15 18 21 25 27 29 30 33 39 44 44 40 30 19 25 28 31 38 51 52 49
56 47 42 32 24 15 9 9 10 13 16 19 23 28 33 36 37 38 40 41 38 31 22 23 22 29 32 38 48 50 37 42
55 42 31 22 12 4 3 5 9 13 17 20 24 28 32 34 34 33 32 31 24 21 24 27 29 30 35 43 51 37 41 51
44 30 19 13 7 4 4 6 10 13 17 22 25 25 23 20 19 20 21 18 18 23 26 32 35 36 40 46 46 38 49 53
35 26 21 13 7 7 6 8 11 15 19 23 24 24 19 10 11 13 12 17 26 27 32 33 36 41 43 46 37 46 48 46
29 23 16 14 9 5 7 10 12 15 20 22 19 16 16 13 12 14 17 21 25 28 33 35 37 36 36 34 32 39 45 50
24 21 21 17 15 16 14 14 17 18 22 23 18 13 11 12 15 18 21 24 25 26 27 29 28 26 30 23 28 39 40 41
25 16 18 19 20 19 15 17 18 19 24 28 23 16 11 12 16 18 18 19 22 27 34 37 32 30 32 26 24 35 31 29
17 13 14 14 15 15 11 10 13 16 17 25 34 28 16 12 16 19 24 30 30 31 35 36 38 38 37 30 28 34 38 29
12 10 10 12 14 13 10 11 12 11 10 16 19 28 32 28 27 27 31 38 40 34 32 33 36 39 37 27 28 32 33 36
15 12 8 9 10 10 11 12 13 12 11 11 11 15 14 18 21 26 28 30 33 36 29 26 25 27 25 15 17 25 30 37
14 10 8 10 12 14 9 8 4 12 13 13 8 12 11 10 16 17 23 23 23 31 31 25 22 22 23 21 20 23 31 35
11 7 10 12 16 12 10 8 6 11 12 11 11 11 14 15 16 14 21 26 28 30 34 31 27 27 23 22 22 26 38 43
13 15 15 16 14 15 10 9 12 12 12 11 10 9 12 13 12 16 21 24 27 33 35 33 35 33 32 32 31 38 46 49
17 19 18 16 14 15 13 15 15 14 13 11 10 9 10 12 14 17 22 26 29 35 42 48 45 42 47 51 51 51 50 52
19 20 19 17 18 15 19 21 18 18 15 13 12 11 12 16 16 20 25 26 29 33 37 41 44 49 52 53 54 54 54 54
19 20 18 18 17 20 26 30 26 21 18 17 17 19 19 20 22 23 25 26 29 33 38 42 45 48 50 50 50 51 51 51
Wind_Direction_850mb
143 143 139 139 135 124 148 144 134 134 205 227 235 247 269 299 309 300 294 305 313 315 317 318 318 319 314 310 310 315 317 316
146 144 145 144 133 129 150 140 168 200 245 256 255 258 260 260 266 271 283 299 307 309 313 314 315 313 315 316 319 317 313 310
148 151 148 138 135 150 163 178 221 269 258 254 256 262 266 266 263 270 283 295 303 307 309 309 309 312 317 313 307 302 302 307
147 152 151 159 157 154 170 227 248 249 260 266 264 262 265 267 271 277 285 294 299 304 307 307 310 307 311 306 307 309 309 313
164 150 140 145 148 164 203 242 265 281 288 282 276 270 267 269 273 280 287 292 297 302 301 305 308 303 309 305 313 318 319 319
155 149 147 142 142 161 259 283 298 311 314 310 299 288 282 278 279 280 283 288 294 300 299 304 309 312 308 307 318 311 311 311
144 141 133 128 110 61 15 341 325 325 326 328 321 311 298 288 278 278 281 293 302 297 300 299 302 311 315 316 316 309 312 319
136 127 113 90 77 26 325 322 332 329 335 336 330 328 327 312 294 286 296 298 300 305 298 298 306 308 318 322 312 312 321 326
121 116 119 96 79 50 5 3 350 355 349 343 338 328 314 288 292 297 298 300 305 308 309 311 309 311 317 322 319 326 324 324
121 127 115 93 58 37 34 29 30 21 10 3 353 333 308 301 305 308 306 305 309 312 323 331 336 333 335 338 321 327 329 330
119 106 81 66 48 41 44 57 50 44 36 32 16 350 311 308 325 344 349 348 344 345 353 351 353 358 5 352 345 357 345 346
104 84 71 59 41 34 41 56 45 39 41 44 41 37 39 43 34 36 29 23 15 9 6 5 5 4 2 356 354 353 359 1
115 103 86 56 26 20 50 46 33 25 51 47 47 53 54 49 43 39 34 30 24 19 15 11 7 6 7 359 1 1 10 10
130 115 82 52 28 65 62 52 47 49 37 39 62 55 57 48 48 46 43 34 29 28 20 14 18 17 12 4 3 26 24 16
125 116 82 46 56 103 69 52 54 29 43 31 28 20 44 30 26 36 34 32 26 26 24 21 17 4 6 16 22 34 32 17
120 106 84 73 111 99 83 66 30 21 33 28 21 37 24 19 36 35 18 11 16 23 24 24 21 19 8 3 7 20 34 36
133 123 102 114 114 96 61 15 355 359 9 18 27 35 41 32 26 19 15 11 15 22 26 33 31 31 27 26 22 28 29 26
128 120 111 108 103 78 35 9 358 0 12 15 4 11 6 13 11 13 17 22 24 25 26 26 25 28 31 32 32 31 29 26
116 119 113 98 86 54 29 24 21 24 24 25 25 21 27 24 21 22 20 22 29 31 31 30 29 31 33 30 30 31 29 25
130 122 113 88 72 45 38 37 33 36 38 41 40 42 40 37 34 33 31 35 35 33 34 34 33 31 31 31 30 28 29 25